Guymon, OK

6:55 PM CDT on April 23, 2017 (GMT -0500)
Guymon Municipal

Weather History for KGUY - June, 2014

Change the Weather History Date:

Thursday, June 19, 2014

  Actual Average Record
Temperature  
Mean Temperature 75 °F 75 °F  
Max Temperature 88 °F 89 °F 105 °F (2011)
Min Temperature 61 °F 62 °F 55 °F (1999)
Degree Days  
Heating Degree Days 0 0  
Month to date heating degree days 5 6  
Since 1 June heating degree days 5 6  
Since 1 July heating degree days 4537 4455  
Cooling Degree Days 10 10  
Month to date cooling degree days 188 150  
Year to date cooling degree days 366 258  
Since 1 June cooling degree days 188 150  
Growing Degree Days 24 (Base 50)    
Moisture  
Dew Point 56 °F    
Average Humidity 52    
Maximum Humidity 69    
Minimum Humidity 34    
Precipitation  
Precipitation T in 0.09 in 0.65 in (2003)
Month to date precipitation 1.64 2.15  
Year to date precipitation 5.03 8.40  
Snow  
Snow 0.00 in - - ()
Month to date snowfall 0.0  
Since 1 June snowfall 0.0  
Since 1 July snowfall 16.2  
Snow Depth 0.00 in    
Sea Level Pressure  
Sea Level Pressure 29.86 in    
Wind  
Wind Speed 10 mph (SSE)    
Max Wind Speed 25 mph    
Max Gust Speed 30 mph    
Visibility 10 miles    
Events Rain    
T = Trace of Precipitation, MM = Missing Value Source: NWS Daily Summary

Daily Weather History Graph

Daily Weather History Graph

Search for Another Location

Airport or City:

Trip Planner

Search our weather history database for the weather conditions in past years. The results will help you decide how hot, cold, wet, or windy it might be!

Date:

Astronomy

Jun. 19, 2014 Rise Set
Actual Time 6:27 AM CDT 9:07 PM CDT
Civil Twilight 5:56 AM CDT 9:38 PM CDT
Nautical Twilight 5:18 AM CDT 10:16 PM CDT
Astronomical Twilight 4:35 AM CDT 10:59 PM CDT
Moon 1:22 AM CDT (6/19) 1:48 PM CDT (6/19)
Length of Visible Light 15h 41m
Length of Day
14h 40m
Waning Gibbous, 51% of the Moon is Illuminated
Jun 19
Waning Gibbous
Jun 19
Last Quarter
Jun 27
New
Jul 5
First Quarter
Jul 12
Full

Hourly Weather History & Observations

Time (CDT) Temp. Heat Index Dew Point Humidity Pressure Visibility Wind Dir Wind Speed Gust Speed Precip Events Conditions
12:53 AM 73.0 °F - 59.0 °F 61% 29.70 in 10.0 mi South 12.7 mph - N/A   Clear
2:53 AM 75.9 °F - 52.0 °F 43% 29.74 in 10.0 mi SW 18.4 mph 29.9 mph 0.00 in Rain Light Rain
3:53 AM 71.1 °F - 54.0 °F 55% 29.73 in 10.0 mi South 5.8 mph - 0.00 in   Clear
4:23 AM 69.1 °F - 55.0 °F 61% 29.92 in 10.0 mi WNW 9.2 mph - N/A   Clear
5:53 AM 64.9 °F - 50.0 °F 58% 29.84 in 10.0 mi North 17.3 mph - N/A   Clear
6:53 AM 61.0 °F - 50.0 °F 67% 29.88 in 10.0 mi North 12.7 mph - N/A   Clear
7:53 AM 64.0 °F - 50.0 °F 60% 29.94 in 10.0 mi NE 9.2 mph - N/A   Clear
8:53 AM 66.9 °F - 51.1 °F 57% 29.93 in 10.0 mi North 12.7 mph - N/A   Clear
10:53 AM 73.0 °F - 52.0 °F 48% 29.93 in 10.0 mi North 11.5 mph - N/A   Clear
11:53 AM 77.0 °F - 53.1 °F 43% 29.92 in 10.0 mi North 11.5 mph - N/A   Clear
12:53 PM 79.0 °F - 53.1 °F 40% 29.91 in 10.0 mi NE 8.1 mph - N/A   Clear
1:53 PM 81.0 °F 80.5 °F 54.0 °F 39% 29.90 in 10.0 mi Variable 4.6 mph - N/A   Clear
2:53 PM 82.9 °F 81.9 °F 54.0 °F 37% 29.88 in 10.0 mi Calm Calm - N/A   Clear
3:53 PM 87.1 °F 85.3 °F 55.0 °F 33% 29.87 in 10.0 mi SSE 8.1 mph - N/A   Clear
4:53 PM 87.1 °F 85.7 °F 55.9 °F 35% 29.86 in 10.0 mi SSE 11.5 mph - N/A   Clear
5:53 PM 87.1 °F 85.9 °F 57.0 °F 36% 29.85 in 10.0 mi SSE 8.1 mph 18.4 mph N/A   Clear
6:53 PM 88.0 °F 86.9 °F 57.9 °F 36% 29.86 in 10.0 mi SE 8.1 mph - N/A   Clear
7:53 PM 87.1 °F 87.0 °F 61.0 °F 41% 29.84 in 10.0 mi SSE 11.5 mph - N/A   Partly Cloudy
8:53 PM 81.0 °F 82.7 °F 64.9 °F 58% 29.84 in 10.0 mi South 12.7 mph - N/A   Clear
9:53 PM 79.0 °F - 64.9 °F 62% 29.87 in 10.0 mi South 8.1 mph - N/A   Clear
10:53 PM 77.0 °F - 64.9 °F 66% 29.88 in 10.0 mi South 5.8 mph - N/A   Clear
11:53 PM 75.0 °F - 64.9 °F 71% 29.90 in 10.0 mi SSE 6.9 mph - N/A   Clear